COSMOS 1285 DEB, 13961

Orbit data source: Space-Track

COSMOS 1285 DEB, 13961 is space debris in HEO originally from a launch on Tue, 04 Aug 1981 UTC launched from the Plesetsk Missile And Space Complex (PKMTR). Debris objects in space refer to the collection of defunct objects orbiting the Earth. Examples of debris include non-operational satellites, rocket bodies, and fragments generated from explosions, collisions, or faulty payload assembly.

Loading next visibility...
Identifier
13961, 1981-071F
Orbit
HEO
Country
Flag of CISCIS
Related business
Manufacturer
Unknown
Mission
Spacecraft
Bus & Motor
Unknown
Mass
Unknown
Launch date (UTC)
1981-08-04 (45 years ago)
Launch vehicle
Unknown
Launch site
Plesetsk Missile And Space Complex (PKMTR)
Object type
Payload
Rocket body
Debris
Shape & HBR
Unknown shape, 1.1 m
Radar Cross Section
Large (>1 m²)

Expand to show TLE details & history
Last TLE update: 6 days ago

TLE from 6 days ago
0 COSMOS 1285 DEB
1 13961U 81071F   26258.24125028  .00000071  00000-0  00000-0 0  9992
2 13961  70.8568  72.9719 5480636 334.2252   6.3956  1.98124209324064
Epoch: 2026-09-15T05:47Z
TLE epoch observation values (Epoch: 2026-09-15T05:47:24.024Z)
Latitude
-0.00002°
Longitude
-8.08529°
Altitude
6,167.344 km
Speed
6.976 km/s
True Right ascension
04h 51m 53s
True Declination
0° 00' 00"
Sunlit
Object was in daylight at epoch
Visualization orbit readout
Latitude
Unknown
Longitude
Unknown
Altitude
Unknown
Speed
Unknown
Apparent Right ascension
Unknown
Apparent Declination
Unknown
Sunlit
N/A
Visualization observer readout
Local Sidereal Time
00:46:20
Azimuth
Unknown
Elevation
Unknown
Doppler factor
Unknown
Orbital elements
Apogee altitude
35,074.335 km
Perigee altitude
5,723.356 km
Semi-major axis
26,776.983 km
Eccentricity
0.54806
Inclination
70.8568°
RAAN
72.9719°
Arg. of periapsis
334.2252°
True anomaly
25.57668°
Mean anomaly
6.3956°
Eccentric anomaly
13.9837°
Mean motion
0.49534 °/min
Orbital period
726.78 mins
BSTAR
0
Loading maneuver chart data...
Computing Atmospheric mass density...
Loading historical data...
Loading historical data...
Loading historical data...
Loading historical data...
Loading historical data...
Loading historical data...
Loading historical data...

Documentation

Showing up to 5 results
|